Wind_Speed
26 28 30 30 28 26 21 19 17 12 12 11 9 9 7 6 4 4 6 7 6 6 8 10 11 11 9 12 17 18 18 19 19 20 21 22 24 26 26 25 24 21 20 20 20 20 20 19 18 17 16 15 14 14 13 12 11 11 10 10 10 10 10 11 11 11 10 11 12 13 13 12 12 13 14 14 15 15 15 15 15 15 14 13 12 12
26 30 32 31 27 24 19 16 16 12 11 10 9 9 8 9 6 3 4 6 6 6 7 10 12 13 12 11 14 18 20 20 20 19 20 21 23 26 26 25 24 22 22 23 21 21 21 20 19 18 17 16 14 13 12 12 12 12 11 11 11 10 10 10 12 12 11 11 12 13 14 13 12 13 14 14 15 15 14 15 15 14 14 13 12 12
26 30 31 29 25 22 18 16 16 14 13 11 10 10 9 11 8 4 4 5 7 7 8 10 12 13 14 12 12 16 19 19 19 19 19 20 23 25 27 26 24 23 24 24 22 21 21 20 19 19 19 17 15 14 13 13 13 12 12 11 11 10 10 11 12 13 13 12 13 14 15 14 13 14 14 14 14 14 14 14 13 13 12 12 11 11
25 28 29 28 25 22 18 17 18 16 15 14 13 11 10 11 10 5 3 5 7 8 8 9 10 12 14 16 15 15 17 18 19 21 20 20 22 25 27 27 25 24 25 24 23 22 21 21 21 20 20 19 17 15 14 13 13 12 12 11 11 11 11 12 12 13 13 13 13 14 14 14 13 14 14 13 13 13 13 12 12 12 11 11 10 10
24 24 26 28 25 22 19 17 19 17 15 15 15 14 12 10 9 5 4 4 5 7 7 8 9 12 15 17 18 16 16 19 21 24 24 22 23 25 27 28 27 26 25 24 23 22 21 20 21 21 21 20 18 16 14 13 12 12 12 11 12 12 12 13 13 14 13 12 12 12 12 12 12 12 12 12 12 12 12 12 11 11 10 10 10 9
23 20 19 25 26 23 21 18 18 18 16 16 16 15 13 9 7 5 6 3 4 5 7 10 8 8 14 17 18 18 18 18 21 25 26 25 25 26 28 29 29 28 26 24 23 22 21 20 20 21 22 20 18 16 14 13 13 13 13 12 12 13 13 13 14 14 13 13 12 12 11 11 12 12 12 12 12 11 11 11 10 10 9 9 9 10
24 19 12 18 25 24 22 20 19 19 17 16 16 15 12 10 8 6 7 4 3 3 4 11 10 5 9 14 16 19 19 18 21 23 25 25 26 28 29 28 29 29 28 26 24 22 21 20 21 22 22 20 18 16 14 14 14 14 14 13 13 13 14 14 14 14 14 13 13 13 13 13 13 12 11 12 12 11 11 10 10 9 8 9 9 9
22 22 14 13 17 22 24 22 21 20 17 15 16 16 12 10 10 9 8 7 5 4 2 10 13 7 7 10 12 17 20 19 21 22 23 26 28 29 29 28 28 29 29 28 26 24 22 21 21 22 21 19 17 17 15 14 14 14 13 14 14 14 14 14 14 14 14 14 13 14 14 14 13 13 11 11 10 10 10 9 9 9 8 8 8 8
16 20 19 15 13 17 22 24 24 22 19 17 16 15 13 10 9 8 7 8 7 4 3 9 12 7 7 9 10 13 19 22 21 21 21 25 29 30 29 29 29 28 27 27 25 24 23 21 22 22 19 18 17 17 15 14 13 14 14 14 15 15 14 15 14 14 14 14 14 14 13 12 12 11 10 10 10 9 9 9 8 8 8 8 8 8
10 12 16 18 16 14 17 20 23 22 21 20 15 12 13 12 8 5 5 5 4 4 6 10 12 7 6 9 11 13 15 15 16 17 18 23 28 29 29 31 30 28 27 26 25 24 23 22 21 20 19 18 17 16 15 14 14 15 15 15 15 15 14 15 15 15 15 15 14 13 12 11 10 9 8 8 8 8 8 8 8 7 7 7 7 7
10 9 11 17 19 16 12 13 17 19 20 20 15 11 11 12 10 4 4 5 3 4 8 10 12 9 5 6 9 12 12 7 6 10 13 18 25 28 30 31 31 29 27 26 25 24 23 22 21 19 19 18 16 15 16 16 16 15 16 16 15 15 14 14 15 15 15 15 15 13 12 11 9 8 7 7 6 7 6 7 7 7 7 6 6 6
16 13 12 14 18 17 13 10 12 15 18 16 12 13 11 8 6 3 5 7 4 3 4 7 10 11 8 6 4 5 8 5 4 4 5 11 20 27 31 32 31 30 28 26 25 24 24 24 23 21 19 18 17 16 17 17 17 16 16 16 15 15 14 14 14 15 16 15 15 14 12 11 10 9 8 7 6 7 7 6 6 7 6 6 5 5
14 16 15 14 15 17 14 12 12 14 17 16 13 15 12 7 5 4 5 5 6 5 3 3 6 11 13 14 12 10 11 10 9 7 4 6 12 23 30 32 32 32 30 27 25 25 25 25 24 22 20 19 18 17 17 17 17 17 17 17 15 14 13 13 13 14 15 16 15 15 13 12 10 10 9 8 7 7 8 7 7 7 7 6 6 6
9 11 15 16 15 17 17 14 14 13 15 17 17 18 14 7 5 6 4 3 5 9 8 4 5 8 12 13 14 15 15 15 14 13 11 7 7 17 26 30 32 33 32 30 27 25 25 25 24 22 21 20 19 18 17 17 18 18 17 17 16 14 13 13 12 13 14 15 16 16 15 14 12 11 10 9 8 8 8 8 8 7 7 7 7 6
6 6 10 15 15 16 19 17 13 11 12 16 19 20 16 10 6 5 5 4 4 5 6 8 6 5 7 8 10 11 11 12 11 11 13 12 8 12 22 28 31 34 34 31 28 25 24 24 23 21 20 19 19 19 18 18 18 18 18 17 16 14 13 13 12 13 13 14 16 16 16 15 13 12 11 11 10 10 9 9 9 9 8 8 8 7
5 5 5 12 16 13 14 16 15 12 11 14 19 20 20 15 6 3 8 9 6 3 5 9 9 9 9 10 11 10 10 11 11 9 10 12 9 12 22 29 31 33 34 32 29 26 24 24 23 22 21 19 20 19 19 18 19 19 18 18 17 15 14 13 12 12 13 14 15 15 15 15 14 13 12 12 12 11 10 10 9 9 9 9 9 8
3 4 3 8 15 14 11 13 16 15 11 12 19 23 23 19 9 3 7 10 8 4 5 9 9 12 14 13 14 13 11 11 11 9 9 11 9 11 20 28 32 33 33 32 30 29 27 25 24 23 22 20 20 20 20 19 18 18 18 17 16 16 15 14 13 12 13 14 15 15 15 15 14 13 12 12 12 12 12 11 10 10 9 9 9 9
3 6 6 5 9 15 15 12 12 15 15 12 16 21 21 17 15 11 5 6 7 4 5 10 11 12 11 9 13 14 13 11 10 9 11 12 11 11 16 25 30 31 31 31 31 31 30 28 26 24 23 22 21 20 19 18 17 17 17 16 15 15 15 14 13 13 13 14 15 15 16 16 15 14 13 13 13 13 13 12 11 11 10 10 10 10
2 4 5 5 5 10 15 15 11 13 18 15 12 15 18 14 15 16 8 3 6 4 2 7 11 13 14 13 13 13 12 12 11 10 12 13 12 11 13 20 26 30 31 30 31 31 29 28 27 26 25 23 22 21 20 19 19 18 17 16 15 15 14 15 15 15 14 14 15 16 16 17 17 16 15 14 14 14 14 13 13 13 12 12 11 10
2 2 2 5 4 4 10 14 14 13 17 19 14 14 18 15 13 17 14 6 4 4 3 5 5 9 16 18 17 14 12 12 12 13 14 14 13 12 13 17 23 28 31 30 30 31 30 27 26 25 25 25 24 23 23 22 21 20 18 17 16 16 16 16 17 17 16 15 15 16 17 17 18 18 17 16 16 16 15 15 15 14 14 13 12 11
3 2 1 1 1 2 7 13 16 15 16 19 18 16 18 16 13 15 16 12 7 3 4 5 3 6 14 16 16 16 13 12 13 14 15 15 13 12 12 14 19 25 28 29 29 30 29 27 26 25 25 25 25 25 26 26 25 24 22 20 18 17 16 16 16 17 17 17 17 17 17 18 18 19 19 18 18 18 17 17 16 16 16 15 14 13
3 3 4 4 3 1 5 10 15 16 16 18 19 18 18 17 15 14 13 14 13 5 3 6 4 6 14 15 15 16 15 13 13 15 16 14 12 10 9 10 14 19 24 27 28 29 30 30 29 27 26 26 26 27 27 29 29 29 27 25 23 21 20 18 17 17 18 19 19 19 18 19 19 20 20 20 20 20 19 18 18 17 17 17 16 15
3 4 5 4 2 1 2 7 12 14 15 17 17 18 19 19 18 15 10 12 15 9 5 6 4 6 13 16 16 17 16 14 14 16 17 14 12 10 8 8 10 14 18 22 24 26 27 28 28 28 27 26 25 26 27 28 29 30 30 29 28 26 25 23 21 19 19 21 22 22 21 21 21 21 21 21 22 22 22 21 20 19 18 18 18 17
3 4 5 4 0 4 6 6 10 13 13 13 12 14 20 20 20 18 11 9 14 14 9 5 3 6 12 16 17 18 18 16 15 16 17 15 13 11 9 9 9 11 14 17 20 20 20 21 24 24 23 22 22 25 27 28 29 31 31 30 30 30 29 28 27 25 23 24 25 25 24 24 23 23 23 23 23 23 23 23 22 21 20 20 19 18
3 3 3 3 1 4 4 6 7 7 7 7 4 7 16 19 20 19 14 9 10 14 15 9 5 7 12 15 17 19 19 19 18 18 18 16 13 11 10 10 10 10 12 14 16 17 17 19 20 21 21 22 22 23 23 24 28 31 32 31 30 32 32 31 30 28 27 26 27 27 27 27 26 25 24 24 24 24 25 25 25 23 22 22 21 20
2 3 3 1 2 3 3 3 4 5 6 8 8 1 9 16 19 18 14 11 10 11 14 12 6 8 13 15 17 19 20 20 20 20 19 17 13 12 11 12 12 12 13 14 15 16 17 19 21 21 22 23 24 23 21 22 25 27 29 30 28 29 30 30 29 29 29 29 29 29 29 29 29 28 27 26 25 25 26 26 26 26 25 24 23 22
2 3 4 6 7 5 5 8 9 10 9 11 12 6 3 10 16 19 15 13 12 10 12 14 11 10 13 14 16 18 19 21 22 21 20 17 14 13 13 13 13 13 13 14 14 16 18 20 21 21 22 23 24 23 22 24 25 25 26 28 27 27 29 30 30 30 31 32 32 30 30 29 30 30 29 29 28 27 27 27 28 28 28 27 26 25
2 4 8 11 12 11 6 2 7 10 10 11 14 12 4 5 12 19 17 11 11 11 11 14 15 12 12 12 14 17 19 20 21 21 19 16 13 13 13 12 13 13 13 13 13 14 17 18 18 18 19 20 22 23 23 24 25 25 25 26 26 27 28 28 29 29 30 33 35 33 31 30 30 31 31 30 29 29 28 28 28 29 29 29 28 27
3 6 11 12 12 13 13 13 10 6 7 8 12 16 11 3 5 14 17 11 10 12 12 12 14 14 13 13 14 17 20 20 19 20 20 16 13 13 12 12 12 12 12 12 12 13 14 15 15 15 16 17 18 19 21 22 23 23 24 24 23 23 24 25 26 27 28 32 34 34 32 31 31 30 31 31 31 30 30 29 29 29 29 29 30 29
3 5 8 11 12 13 14 17 19 15 10 8 8 14 15 9 4 7 14 13 11 13 12 11 13 15 16 16 15 17 20 20 19 19 19 16 14 13 13 13 13 12 12 12 13 14 14 15 15 15 16 16 17 17 18 20 21 21 21 21 20 20 20 22 23 24 25 27 29 31 32 33 33 32 31 31 31 31 31 30 29 28 28 28 29 30
3 5 6 9 11 12 14 15 18 20 17 15 12 10 14 10 5 4 7 11 12 12 12 12 14 15 17 17 16 17 19 20 20 20 18 16 14 13 14 14 13 13 13 14 15 15 15 15 16 16 16 16 17 18 18 18 18 18 18 18 18 19 19 19 20 20 20 21 24 27 30 33 34 34 34 32 32 33 33 32 30 29 28 27 27 28
4 6 6 7 8 10 14 15 14 16 18 18 17 12 11 12 8 5 4 6 9 9 8 10 14 16 17 18 17 17 20 20 21 20 17 16 15 15 15 15 14 13 13 13 14 14 15 16 15 15 15 15 16 17 17 17 16 16 16 16 16 17 17 17 17 17 18 19 20 22 25 29 31 33 35 35 33 32 32 32 31 29 28 27 26 26
5 7 7 7 7 9 12 14 12 10 11 14 16 16 10 12 13 7 3 4 6 7 5 5 10 14 17 19 20 20 22 22 21 20 18 17 17 17 16 15 14 13 13 12 12 13 15 16 16 15 14 14 14 14 15 16 16 16 16 16 15 15 16 16 16 15 15 16 16 17 19 22 25 29 34 36 34 33 33 32 31 29 28 27 27 26
5 7 8 8 7 7 10 13 11 7 5 9 13 15 12 10 13 11 6 5 5 7 9 7 7 11 15 18 20 21 24 24 22 20 19 17 16 15 15 13 12 12 12 12 12 13 14 15 15 14 13 12 13 13 13 14 15 15 16 16 16 16 16 16 16 14 14 14 14 15 16 17 20 24 29 34 36 37 36 34 31 28 27 27 27 26
4 7 6 8 8 6 7 10 8 6 9 12 12 10 10 11 12 11 10 10 9 5 7 7 5 8 13 16 17 18 23 24 22 21 19 16 14 12 11 11 11 11 11 11 11 11 12 12 13 14 13 12 11 11 12 12 11 12 13 14 14 14 15 15 14 13 13 13 13 14 15 15 16 19 24 31 36 37 36 34 32 30 29 27 26 25
2 6 5 5 7 6 7 9 6 4 10 14 13 11 11 12 12 8 10 11 9 8 6 6 5 8 14 16 15 17 21 23 21 18 15 13 10 9 9 10 10 10 12 13 13 13 13 12 13 12 12 11 9 8 8 9 9 9 10 11 12 13 13 12 13 13 12 13 13 13 13 12 11 11 13 18 25 32 35 34 31 28 29 29 28 26
1 4 4 4 5 5 6 8 5 3 6 11 13 14 12 11 13 10 7 7 7 10 10 8 5 7 15 16 16 19 22 22 20 18 16 15 12 11 13 13 12 12 15 17 16 15 15 13 12 11 10 10 9 8 7 8 9 9 9 11 12 13 13 12 12 12 12 12 13 13 12 12 10 10 8 7 10 17 24 28 28 27 29 30 29 29
3 3 5 4 5 5 5 6 6 3 4 8 11 13 12 10 11 12 9 7 8 12 14 12 5 6 15 17 18 22 23 21 21 20 21 20 18 16 16 15 14 14 17 17 15 14 14 12 11 11 10 9 10 9 8 8 9 10 10 11 12 13 14 13 12 12 12 12 13 12 12 12 11 11 11 10 10 10 13 19 23 26 29 30 31 33
5 2 4 4 4 5 6 5 4 2 2 5 8 10 11 9 9 11 10 7 8 10 13 13 6 4 12 18 21 23 22 21 22 22 22 22 20 19 17 15 15 16 17 17 15 12 11 10 9 10 10 10 9 9 8 8 8 8 8 8 8 9 11 11 11 11 12 13 13 12 12 13 13 12 11 12 13 12 12 15 18 21 25 28 30 32
3 2 2 4 3 4 5 4 3 3 4 5 6 7 8 7 8 10 6 3 4 6 10 11 8 3 9 16 20 20 20 20 19 19 21 22 19 17 15 14 14 15 15 16 15 12 10 10 10 10 10 10 9 9 8 7 7 7 7 7 7 8 8 9 9 10 12 13 14 13 12 12 14 14 14 13 13 13 13 14 15 15 15 16 21 27
2 3 2 4 4 3 4 4 3 3 5 6 6 6 7 6 7 7 3 2 3 4 7 8 9 6 5 9 14 17 18 16 13 13 15 17 17 15 14 13 14 14 15 16 15 13 12 12 12 11 10 10 10 9 8 8 8 8 9 9 10 10 9 9 9 10 11 12 13 14 14 13 14 15 17 17 17 16 17 16 15 14 11 9 13 21
1 3 3 2 2 2 2 3 3 2 2 5 6 6 6 5 4 4 4 4 5 3 4 7 8 7 5 6 11 16 15 12 11 11 11 13 17 18 17 16 16 16 16 16 16 15 14 13 12 11 10 9 8 7 6 6 7 8 9 10 10 10 10 10 10 10 10 11 11 12 12 12 12 12 13 15 17 18 18 17 17 17 17 16 18 20
0 0 1 1 1 1 1 1 2 2 1 3 5 5 5 3 3 5 7 8 7 5 5 7 8 9 8 7 10 12 11 10 10 11 11 13 17 19 19 19 18 17 17 16 14 13 12 11 10 9 8 6 5 3 2 2 3 5 7 8 9 9 9 9 9 10 10 10 10 10 10 10 9 7 7 8 10 11 11 12 14 16 18 20 20 20
2 1 1 0 1 1 1 1 1 0 0 1 2 2 3 4 5 6 7 8 8 8 8 9 9 10 10 9 8 8 9 9 10 10 11 13 15 17 18 18 18 18 18 16 14 11 9 7 6 5 4 3 2 1 1 2 4 6 6 7 8 9 9 9 9 9 10 10 10 10 10 9 8 7 6 6 7 7 8 8 10 12 14 16 17 18
2 1 1 2 2 1 2 2 2 2 2 2 2 2 2 3 5 7 8 8 9 9 10 11 10 10 11 12 11 11 11 13 13 11 10 11 12 14 16 15 14 14 13 12 10 8 7 5 5 5 5 4 4 3 3 3 3 5 7 9 10 11 11 11 11 11 11 10 11 10 10 10 9 9 8 8 8 8 8 9 9 9 10 11 12 14
4 3 3 4 4 3 4 5 5 5 4 4 5 5 4 4 4 5 7 9 9 9 11 13 12 12 12 13 15 16 17 18 16 13 12 13 14 16 17 17 15 13 12 10 9 8 7 7 7 7 7 9 9 8 8 7 7 6 7 9 11 13 14 14 14 14 13 13 13 12 12 12 12 11 11 11 11 11 11 11 11 11 11 11 11 12
7 7 7 7 7 6 5 5 5 5 6 6 7 8 8 7 6 6 6 8 8 9 11 13 14 13 13 14 15 17 18 19 18 15 13 13 16 19 19 18 17 15 13 11 10 8 8 9 10 9 9 11 11 12 12 12 11 11 9 9 11 13 15 16 17 17 17 16 16 16 15 15 15 15 15 14 14 15 14 14 14 14 14 14 14 14
8 8 8 9 9 9 8 8 8 8 8 8 8 9 9 10 9 8 7 8 8 8 9 12 14 14 14 15 17 19 21 23 22 19 17 16 17 20 21 19 17 16 14 12 10 8 8 10 12 13 13 13 13 13 14 14 14 13 12 12 11 13 15 17 18 19 20 20 20 20 20 19 19 19 19 19 19 19 19 19 19 19 18 18 18 18
10 10 10 10 11 10 11 11 11 11 11 11 10 10 11 11 11 10 10 9 9 9 9 11 13 14 14 15 19 22 23 24 22 17 16 18 16 17 22 22 19 16 14 11 9 8 9 11 13 15 15 16 16 16 16 15 15 14 13 13 13 13 15 16 17 19 20 22 23 23 23 23 23 23 23 23 23 23 23 23 23 23 23 23 23 22
12 12 12 12 12 12 12 13 13 13 13 13 13 12 12 12 12 12 11 11 11 11 11 11 12 13 14 14 17 18 17 17 18 16 13 13 14 15 19 22 20 17 14 10 9 10 12 13 14 15 16 18 19 19 19 18 17 16 14 14 14 14 15 16 17 18 19 20 22 23 24 25 25 26 26 26 26 27 27 27 26 26 27 27 27 27
12 13 13 13 13 13 13 13 13 14 14 14 14 15 15 15 14 14 13 12 12 12 13 13 13 13 13 12 13 13 12 12 13 11 8 6 7 9 11 11 11 11 10 8 9 12 14 15 16 17 18 19 20 21 21 20 19 17 16 15 14 15 15 15 16 17 18 19 20 21 22 23 24 24 25 25 26 27 28 28 29 29 29 30 30 30
Wind_Direction
197 195 195 195 192 190 191 190 194 203 206 209 204 196 187 170 204 253 231 225 221 219 220 211 206 205 210 213 208 208 210 207 205 205 201 198 196 195 193 192 192 189 186 191 193 191 190 187 185 185 183 182 183 182 181 176 173 173 174 173 168 164 161 155 150 147 145 143 142 145 152 154 154 154 152 151 151 149 146 143 143 142 142 143 145 144
198 200 201 196 191 192 193 189 191 199 203 202 197 194 174 167 193 218 199 209 211 217 228 223 216 212 214 215 209 210 212 211 211 209 205 202 201 198 197 195 192 190 190 195 195 193 195 192 190 191 188 186 184 183 184 182 178 176 177 176 171 168 167 162 154 151 152 152 148 148 153 156 155 157 158 156 153 151 147 145 143 143 144 146 148 149
199 204 204 198 195 195 194 190 188 190 191 185 182 182 164 164 183 184 178 196 202 213 225 224 223 220 218 216 214 214 214 215 217 215 209 206 204 201 200 198 193 191 195 198 197 195 198 196 194 196 193 187 185 185 187 187 183 179 179 179 173 170 173 170 161 158 160 160 156 153 155 157 158 159 160 159 157 154 150 147 145 143 144 147 150 154
200 206 204 199 198 197 196 194 191 191 190 183 179 176 165 169 179 180 201 203 200 213 222 218 222 226 221 217 217 216 212 213 216 217 216 213 209 204 201 200 196 193 198 200 199 198 199 199 198 200 197 191 187 187 188 188 185 181 181 181 176 173 177 176 169 167 167 164 161 158 156 155 154 155 157 158 159 158 154 152 149 147 146 148 151 154
205 210 206 201 201 201 201 200 197 201 203 195 187 181 174 175 183 200 237 226 198 214 217 201 214 230 225 220 220 218 214 211 213 219 222 217 211 208 203 201 197 193 197 202 201 200 201 201 201 201 200 195 190 187 187 187 187 184 182 183 181 178 180 181 176 175 173 166 162 158 151 144 141 144 147 150 154 158 159 159 156 153 151 152 153 154
209 211 209 206 206 205 207 208 204 207 215 212 201 190 184 182 186 215 250 249 183 215 221 198 207 237 230 225 222 221 221 215 212 219 222 218 214 210 205 202 198 194 195 200 203 203 203 203 202 201 199 195 191 187 186 187 189 188 184 184 187 183 182 186 182 178 175 168 163 156 143 132 130 135 139 143 149 157 163 164 161 158 157 158 160 160
208 206 200 204 210 212 213 215 213 212 219 225 216 203 199 203 201 220 256 257 196 243 238 202 209 252 245 234 225 222 225 223 219 219 219 218 215 211 207 204 202 198 195 196 200 203 205 204 203 199 194 191 191 188 188 190 190 190 186 186 191 188 185 187 184 179 176 170 165 158 148 141 138 140 144 150 154 156 161 166 166 164 165 166 167 166
209 205 197 195 208 215 217 218 218 216 220 229 226 218 220 225 226 242 270 279 261 285 281 207 214 248 266 249 232 225 226 227 227 223 218 215 211 209 208 206 205 202 197 195 197 200 203 204 201 195 187 184 188 189 190 192 192 192 190 189 193 192 189 187 183 180 177 173 168 162 157 154 151 150 151 154 156 153 156 163 167 168 173 176 172 169
212 211 211 207 207 215 219 221 222 222 224 230 232 230 233 236 238 250 268 276 269 267 249 212 212 233 263 252 239 228 227 231 233 228 219 214 211 209 207 206 206 204 199 196 196 198 200 199 196 189 178 176 183 187 190 193 196 196 194 195 197 194 192 188 183 181 179 176 173 167 164 163 161 159 157 155 154 153 156 160 164 168 174 180 178 171
205 211 218 218 219 224 223 223 225 226 228 232 236 236 233 231 233 240 235 244 254 247 240 221 210 218 257 259 248 231 226 233 239 236 226 216 213 211 208 207 206 204 201 197 194 193 193 192 190 182 172 171 176 182 187 193 199 200 198 199 200 197 194 190 185 183 181 180 178 172 170 171 168 167 164 156 153 153 155 157 161 166 170 174 177 173
206 204 213 217 222 229 229 225 224 225 227 231 230 220 218 223 228 231 198 195 209 241 249 242 226 222 248 277 260 238 231 239 250 248 239 223 215 211 208 208 207 205 202 198 192 187 184 184 183 177 171 169 170 177 186 193 200 202 201 201 202 203 200 194 187 186 184 183 182 178 175 175 172 171 170 164 157 152 153 159 163 166 168 168 170 170
223 223 222 218 221 225 227 226 222 220 221 220 211 201 200 201 202 190 171 186 208 237 267 267 235 220 232 253 263 246 243 250 245 244 255 236 221 212 207 206 207 207 204 200 194 186 181 181 182 179 173 170 169 176 185 193 199 203 204 203 203 205 205 200 192 188 187 185 185 184 182 179 178 176 175 171 169 165 163 167 168 166 165 164 166 170
233 235 236 229 225 222 220 222 220 217 215 208 195 195 196 176 168 180 176 192 220 229 269 294 207 211 239 251 254 261 265 269 262 246 251 252 228 217 211 207 207 208 207 203 197 190 184 182 183 180 175 174 173 175 184 192 199 204 205 204 204 205 207 206 199 193 190 187 187 188 188 187 187 185 181 177 180 183 179 176 175 172 166 164 169 176
240 241 239 235 233 224 217 218 221 218 213 207 196 193 194 182 180 192 175 180 219 228 241 232 189 220 251 257 256 258 263 269 271 262 255 261 241 217 212 210 207 207 208 207 200 194 189 185 184 183 179 177 175 175 182 191 198 203 205 203 203 203 205 207 205 200 195 191 189 190 191 193 194 191 189 186 187 194 194 185 182 182 177 172 175 185
233 237 233 226 229 227 220 219 222 221 220 214 203 198 201 200 196 195 183 178 193 207 212 197 194 233 242 243 250 256 265 269 273 268 252 252 253 215 207 209 208 206 207 207 203 198 193 189 188 187 183 181 179 178 182 189 196 200 203 203 202 202 203 205 206 203 200 197 194 193 195 197 198 196 194 194 195 199 201 197 192 190 189 187 188 192
227 239 230 214 217 223 221 219 218 217 223 214 203 203 208 201 186 179 189 191 190 172 172 186 212 244 243 251 259 262 272 272 276 275 243 239 248 218 204 203 204 206 206 205 204 202 198 195 193 191 187 184 185 184 184 188 193 197 200 202 202 203 203 204 205 203 202 203 201 199 201 203 203 201 198 198 200 202 203 204 204 200 198 200 200 199
227 230 194 198 212 217 218 217 212 211 218 208 199 206 209 200 195 200 182 187 201 214 191 188 220 247 250 260 262 259 268 270 271 268 232 225 237 220 205 201 200 204 205 204 205 206 204 201 197 193 190 188 189 189 188 189 190 192 196 200 203 205 206 205 205 203 203 206 206 205 207 210 211 208 204 203 204 207 207 208 212 213 212 211 210 208
258 241 210 187 209 215 221 227 215 210 215 210 205 208 206 202 213 224 201 182 203 219 198 198 222 244 246 253 257 255 260 261 260 251 224 220 227 215 206 205 202 202 205 206 208 209 208 205 199 193 192 192 192 192 192 191 191 190 191 194 200 205 208 210 211 209 206 207 209 209 210 214 216 215 212 209 210 213 213 212 216 219 222 222 221 218
338 272 226 194 194 208 220 228 224 216 214 215 216 206 198 198 205 207 206 201 205 207 182 197 221 239 237 238 249 253 252 249 243 229 218 218 220 209 201 204 204 204 207 210 212 212 209 205 200 195 195 197 196 195 196 195 194 194 194 195 198 202 207 212 215 214 211 209 211 212 213 215 218 219 216 214 215 217 217 217 219 222 225 227 228 226
1 332 210 191 198 207 209 212 217 220 214 215 223 212 205 209 201 197 206 218 206 204 197 191 206 235 237 236 243 250 249 244 233 217 213 214 215 211 203 201 203 206 207 207 211 214 213 210 207 202 202 203 202 200 200 199 197 197 198 199 201 204 209 213 215 216 214 213 213 214 216 218 219 220 218 216 217 219 219 220 220 222 225 227 229 229
338 320 292 266 317 220 200 202 210 216 213 213 218 217 213 213 201 199 210 215 213 198 195 210 208 217 229 233 235 239 242 239 228 216 214 215 214 214 211 208 207 207 206 205 206 211 216 218 216 213 211 209 208 207 205 204 202 201 202 203 205 208 214 218 220 220 219 216 215 215 216 218 220 221 220 218 217 218 219 220 221 223 225 226 228 229
331 306 306 337 20 45 204 204 206 208 210 211 212 217 218 210 197 198 208 210 212 210 192 217 226 207 219 228 228 228 233 233 223 214 213 213 212 212 214 216 215 211 208 206 205 210 219 222 222 221 220 219 219 217 213 209 205 204 204 203 205 208 213 219 222 223 222 219 217 216 216 217 218 219 221 220 219 219 220 220 221 223 224 225 226 227
314 297 312 334 5 47 162 197 195 190 195 201 204 210 214 210 203 206 211 201 203 213 212 216 234 219 215 221 221 219 224 230 223 215 212 210 208 209 208 210 214 213 209 206 208 215 224 228 230 229 227 229 232 229 224 219 211 208 208 206 206 208 210 214 218 221 222 219 217 217 216 216 217 217 218 220 220 220 220 220 221 222 223 224 226 226
310 293 311 339 122 131 99 119 156 161 167 177 186 198 204 207 209 215 223 206 197 202 200 199 228 221 212 215 217 216 218 227 228 220 212 207 207 208 205 203 205 206 206 205 208 213 221 229 236 237 235 240 242 236 233 229 219 215 216 213 210 211 212 211 212 215 218 217 216 216 216 217 218 217 217 218 219 220 220 221 222 222 222 223 225 226
299 284 305 350 122 150 116 102 123 134 131 120 115 192 202 206 210 217 225 218 203 202 202 207 223 213 209 212 214 214 217 223 229 227 216 205 202 207 207 206 202 199 200 203 206 209 212 220 229 235 238 244 248 245 242 237 230 228 228 224 217 216 218 217 214 214 217 219 218 216 215 217 218 218 218 217 217 218 220 221 223 223 223 223 225 226
260 238 246 213 141 122 97 84 55 38 57 57 34 354 205 208 209 213 217 215 214 209 206 213 222 215 215 216 214 215 217 219 224 228 222 207 198 200 201 202 203 202 200 201 203 206 209 215 218 220 226 234 241 246 247 246 245 242 238 236 232 228 228 225 221 219 219 220 222 221 218 218 218 219 219 217 217 217 219 221 222 224 224 223 224 225
233 227 211 186 174 147 87 67 50 40 44 35 19 13 215 207 205 207 211 217 222 217 210 216 224 226 223 221 220 220 221 220 221 225 224 211 198 196 198 201 206 206 204 204 205 207 212 218 220 221 225 229 234 239 242 244 248 247 242 239 237 235 235 233 230 227 223 221 221 222 221 220 219 220 221 220 219 218 219 221 222 223 224 224 224 225
181 157 152 162 179 190 196 21 33 39 34 22 18 14 345 209 199 204 208 216 225 223 224 225 226 234 236 230 224 220 221 222 219 221 223 213 198 195 197 200 202 199 198 200 204 210 217 223 224 224 226 230 233 236 236 238 240 239 239 236 233 232 234 236 236 234 230 226 222 221 224 224 222 221 222 222 222 221 221 222 223 224 224 225 225 225
187 162 156 162 174 190 214 247 277 334 3 4 17 15 358 304 213 207 206 208 217 222 234 235 230 236 241 239 229 217 216 217 214 216 220 212 198 192 192 194 195 193 193 197 204 214 222 226 224 221 222 224 228 230 231 233 234 234 235 236 236 235 234 235 236 234 233 231 227 223 226 230 230 227 224 224 225 225 223 223 224 225 226 226 227 227
195 186 183 179 180 188 205 235 257 270 292 309 342 7 2 343 306 224 211 215 220 221 228 232 229 231 232 237 237 221 213 210 208 212 216 210 199 190 188 193 197 199 202 206 211 216 222 225 223 219 219 221 224 226 229 232 233 234 237 239 240 240 237 236 236 234 234 237 235 228 225 228 231 231 230 228 227 228 227 225 225 226 227 228 229 229
203 206 208 192 191 200 200 215 245 257 267 279 288 336 6 2 329 276 224 221 224 224 226 224 224 226 227 234 238 226 214 207 205 210 211 206 201 194 193 201 206 209 212 211 212 216 221 223 220 216 217 220 224 227 229 231 229 227 231 235 234 235 235 234 234 234 234 237 238 234 229 228 229 230 232 231 228 229 229 228 226 227 228 229 230 231
213 215 216 199 197 206 200 201 222 243 259 271 270 288 350 11 353 305 250 228 228 229 232 226 224 223 223 229 230 222 213 206 203 209 208 202 200 198 200 207 212 217 220 217 217 222 227 229 226 222 221 220 224 228 230 232 229 223 225 229 229 229 232 232 230 232 235 236 236 235 232 233 232 229 229 230 231 232 234 233 231 230 229 231 233 234
214 211 212 208 206 206 203 202 206 223 260 270 256 257 298 356 3 348 298 265 249 230 218 219 226 225 222 223 220 209 203 199 199 204 206 203 204 204 205 211 217 222 224 223 227 230 228 225 223 225 228 226 226 229 232 234 230 223 224 228 228 229 232 234 232 232 235 236 235 234 233 235 236 233 229 230 234 236 236 235 234 233 232 231 233 234
217 209 209 208 212 213 208 207 203 198 233 254 248 251 268 316 350 3 6 340 304 242 222 219 227 228 225 226 219 203 193 193 196 199 201 201 205 208 209 211 215 220 222 224 229 228 223 219 215 217 221 225 225 224 227 233 232 226 224 226 229 232 233 234 234 232 230 230 230 231 231 233 238 239 235 233 233 232 232 231 232 234 235 234 234 235
226 214 214 207 211 220 202 193 191 199 222 236 246 252 259 281 314 352 15 8 356 318 260 248 233 214 217 223 219 200 191 190 192 194 195 196 199 205 209 210 209 208 207 209 210 205 204 210 213 213 212 214 220 224 224 226 226 221 220 221 224 228 228 227 227 224 223 224 225 226 228 231 236 240 241 238 234 230 229 228 229 233 237 239 240 240
250 219 228 214 212 213 188 180 188 222 223 228 239 242 245 263 281 319 8 9 3 360 332 293 266 218 207 208 203 194 193 194 191 187 184 183 184 185 192 199 198 189 183 184 186 183 183 192 202 209 210 206 206 217 223 221 216 210 208 209 212 216 215 213 213 214 216 218 219 219 222 226 228 228 235 242 240 235 231 228 227 229 235 240 244 246
325 219 226 220 214 210 194 196 212 221 197 207 223 228 227 243 256 269 321 352 360 8 4 344 306 218 200 199 196 193 196 196 189 176 163 159 161 164 173 181 177 171 175 180 181 183 185 186 187 195 206 208 205 207 214 217 217 213 205 201 205 211 212 209 210 214 215 214 213 213 215 220 218 208 200 210 229 233 232 231 230 231 235 240 244 245
346 229 215 219 227 226 217 211 217 212 175 190 205 209 209 219 233 243 268 313 352 5 6 7 2 202 198 197 196 196 195 190 183 175 166 161 163 167 174 180 179 181 188 192 192 194 198 196 188 188 198 213 221 222 218 211 209 211 209 205 205 208 212 213 211 209 211 213 212 210 213 216 217 215 211 209 207 210 222 231 233 234 237 240 242 242
340 297 212 215 227 222 219 215 212 216 200 198 204 205 204 208 219 230 254 302 342 357 3 11 17 216 207 198 195 198 199 193 187 182 173 165 165 169 173 178 182 184 189 194 196 198 201 199 190 186 191 204 214 214 206 195 190 195 206 214 215 213 215 218 213 204 205 211 213 213 215 215 215 214 215 218 218 215 217 225 230 234 236 236 237 239
343 3 188 195 197 201 206 206 203 212 227 226 223 218 211 217 233 234 243 302 328 344 356 2 4 313 218 204 204 210 211 204 198 188 174 164 161 166 169 170 172 170 169 172 174 174 175 175 173 172 175 178 180 179 174 169 167 172 185 198 205 208 213 218 216 210 209 212 215 218 217 218 219 218 212 211 215 215 213 212 218 228 235 235 233 235
39 42 105 171 181 184 187 184 178 196 224 228 231 235 230 233 243 238 234 296 295 322 341 338 341 333 260 223 224 227 221 215 211 197 177 160 151 152 155 154 152 150 148 150 149 146 143 143 144 148 151 152 153 153 154 157 161 166 173 179 184 187 192 200 205 207 209 211 215 219 221 223 226 226 221 219 222 226 223 216 212 214 215 218 225 229
48 45 65 118 155 177 176 172 157 137 204 217 221 236 239 238 250 248 246 259 266 281 294 296 308 311 287 251 243 239 233 224 212 195 176 156 147 148 150 149 147 144 142 140 137 134 132 130 131 135 138 140 143 144 149 158 165 172 175 176 179 183 184 187 191 194 197 201 206 212 218 222 224 222 220 221 224 230 231 223 215 215 216 220 224 224
294 29 38 66 101 159 178 169 142 90 95 200 208 226 234 237 265 258 243 243 245 234 230 247 267 274 269 259 252 250 246 228 196 169 149 142 146 152 155 153 151 148 143 139 135 130 129 129 130 130 130 131 134 140 169 201 212 207 196 189 189 190 190 190 190 190 191 193 197 202 208 217 222 216 209 210 213 220 223 219 215 216 219 223 226 227
301 253 236 183 102 116 133 133 136 99 36 192 199 226 242 247 260 263 255 250 248 234 216 213 224 236 246 252 251 252 251 226 188 153 132 132 141 151 156 154 154 154 151 148 147 146 145 148 153 153 149 146 137 130 225 254 257 255 244 230 219 212 208 206 204 202 200 198 198 200 202 208 215 214 205 201 201 202 206 213 217 219 220 222 225 230
297 273 227 231 237 244 236 224 224 244 268 264 255 282 296 280 275 276 271 264 263 251 229 213 206 210 223 232 234 241 244 224 194 165 148 150 155 161 166 169 172 175 174 170 170 173 178 190 209 226 238 245 248 263 286 289 274 263 257 253 247 239 231 227 223 221 220 218 215 214 213 213 217 221 219 215 212 210 210 213 217 219 222 224 225 229
265 260 262 271 275 269 258 253 253 259 268 272 273 280 291 295 296 292 275 265 266 258 236 218 207 207 219 227 228 234 236 225 207 180 159 160 170 177 182 185 187 190 194 198 204 208 212 224 237 249 263 272 272 271 275 281 285 281 268 259 257 255 251 247 243 239 237 235 234 233 232 232 232 234 236 236 234 233 231 229 229 229 230 232 234 237
256 252 254 264 269 269 268 268 266 267 272 278 281 279 277 274 276 282 279 269 261 253 239 224 214 217 229 233 233 237 241 238 230 215 198 191 188 188 190 189 184 184 190 197 205 215 229 247 259 267 276 283 285 284 282 281 281 283 280 269 261 259 258 256 255 253 251 250 249 248 247 248 248 247 248 250 250 250 249 248 248 247 247 248 250 252
258 256 255 255 253 253 260 266 270 274 280 282 281 276 274 272 268 263 265 270 269 262 251 236 228 231 238 237 235 237 238 237 234 230 231 230 211 193 192 194 191 190 193 197 202 214 233 252 264 272 279 286 291 295 295 292 287 283 281 276 269 263 260 258 256 256 256 256 257 257 257 257 258 258 258 258 258 259 259 259 258 259 259 259 259 260
263 264 262 261 258 255 254 257 261 266 271 272 270 267 267 268 268 263 255 255 261 266 263 254 248 248 248 244 242 240 235 234 240 246 252 254 241 211 197 196 194 194 197 203 215 230 241 249 255 262 274 288 298 303 305 304 298 291 284 279 275 270 266 262 258 256 254 254 255 256 258 259 259 260 261 262 262 262 262 262 263 263 263 264 264 265
269 268 267 266 266 262 258 256 256 257 259 260 261 262 261 260 262 263 259 253 251 253 258 261 262 262 260 256 254 252 246 247 260 271 269 259 252 232 209 198 194 193 196 207 230 247 255 258 259 264 275 288 299 304 306 305 304 299 292 285 279 276 273 270 266 262 259 256 254 253 254 255 256 257 258 259 260 261 262 262 262 263 264 264 265 266
270 270 269 268 267 266 265 263 260 257 254 252 252 254 256 258 258 259 259 257 252 248 248 254 259 263 265 264 261 259 258 256 260 268 271 256 244 236 223 212 207 208 210 220 244 257 264 268 271 277 285 291 295 299 301 302 301 299 296 291 285 280 277 274 272 269 265 262 259 257 256 256 256 256 257 257 258 259 260 260 261 261 263 264 264 264
Height
3152 3154 3155 3156 3159 3162 3164 3167 3168 3169 3170 3171 3173 3174 3175 3176 3176 3177 3178 3179 3179 3179 3180 3181 3183 3184 3184 3184 3186 3187 3188 3189 3190 3192 3194 3195 3197 3198 3200 3202 3204 3207 3209 3210 3211 3213 3214 3215 3216 3217 3218 3219 3220 3222 3223 3224 3226 3227 3228 3229 3230 3231 3233 3234 3235 3237 3238 3238 3239 3240 3241 3242 3243 3243 3244 3244 3245 3246 3246 3247 3248 3248 3249 3250 3251 3251
3151 3152 3154 3156 3159 3162 3164 3166 3167 3169 3170 3171 3172 3173 3174 3175 3176 3177 3177 3178 3179 3179 3180 3181 3182 3183 3184 3184 3185 3186 3186 3188 3189 3191 3193 3195 3196 3197 3199 3201 3204 3206 3208 3209 3210 3212 3213 3214 3215 3217 3218 3219 3220 3222 3223 3225 3226 3227 3228 3229 3230 3232 3233 3234 3235 3236 3238 3239 3239 3240 3241 3242 3243 3244 3244 3245 3246 3246 3247 3248 3248 3249 3250 3251 3252 3252
3150 3151 3154 3157 3159 3161 3163 3165 3167 3168 3169 3170 3172 3173 3174 3175 3176 3177 3177 3177 3178 3179 3180 3180 3181 3182 3183 3183 3184 3184 3186 3187 3189 3190 3192 3194 3195 3196 3198 3200 3203 3205 3206 3207 3209 3211 3212 3214 3215 3217 3218 3219 3220 3221 3223 3224 3225 3227 3228 3229 3230 3232 3233 3234 3235 3236 3237 3238 3240 3240 3241 3242 3243 3244 3245 3246 3247 3247 3248 3249 3249 3250 3251 3251 3252 3253
3150 3151 3153 3156 3158 3161 3163 3164 3166 3167 3169 3170 3171 3173 3174 3174 3175 3176 3177 3177 3177 3178 3178 3179 3180 3181 3181 3182 3182 3183 3184 3186 3187 3188 3190 3192 3194 3195 3197 3199 3201 3203 3205 3206 3208 3210 3211 3213 3214 3216 3218 3219 3220 3221 3222 3224 3225 3226 3228 3229 3230 3231 3233 3234 3235 3236 3237 3238 3239 3241 3241 3242 3243 3244 3246 3247 3247 3248 3249 3250 3250 3251 3251 3252 3253 3253
3150 3151 3153 3155 3157 3160 3162 3164 3165 3167 3168 3169 3170 3172 3173 3174 3175 3176 3176 3176 3176 3177 3177 3178 3179 3179 3179 3180 3181 3182 3183 3184 3185 3186 3187 3190 3192 3194 3196 3197 3200 3202 3204 3205 3207 3209 3210 3212 3214 3216 3217 3218 3219 3220 3222 3224 3225 3226 3227 3229 3230 3231 3233 3234 3235 3236 3237 3238 3240 3241 3242 3243 3244 3245 3246 3247 3248 3249 3250 3250 3251 3251 3252 3253 3253 3254
3150 3151 3153 3155 3157 3159 3161 3162 3164 3166 3168 3169 3170 3171 3172 3173 3174 3175 3175 3175 3176 3176 3176 3177 3178 3177 3177 3178 3179 3180 3181 3182 3183 3184 3185 3188 3190 3193 3194 3196 3198 3200 3202 3204 3206 3208 3209 3211 3214 3215 3216 3218 3219 3220 3221 3223 3224 3226 3227 3228 3230 3231 3232 3234 3235 3236 3237 3239 3240 3241 3243 3244 3245 3246 3246 3247 3249 3249 3250 3251 3251 3252 3252 3253 3254 3254
3149 3151 3153 3154 3156 3158 3160 3161 3163 3165 3167 3168 3169 3171 3172 3173 3173 3174 3174 3175 3175 3175 3175 3176 3176 3176 3175 3176 3177 3178 3179 3180 3182 3182 3184 3186 3188 3190 3193 3195 3196 3198 3201 3203 3205 3207 3209 3211 3213 3214 3216 3217 3219 3220 3221 3222 3224 3225 3226 3228 3229 3230 3232 3234 3235 3236 3238 3239 3240 3241 3243 3244 3245 3246 3246 3247 3248 3249 3250 3251 3252 3252 3253 3253 3254 3255
3148 3150 3152 3154 3155 3157 3159 3160 3162 3164 3167 3168 3169 3170 3172 3173 3173 3173 3174 3174 3175 3174 3174 3174 3175 3175 3174 3174 3175 3176 3177 3178 3179 3180 3182 3183 3185 3188 3191 3193 3195 3197 3199 3201 3203 3205 3207 3210 3212 3214 3215 3217 3218 3219 3220 3221 3223 3224 3226 3227 3229 3230 3232 3233 3235 3236 3237 3239 3240 3241 3242 3243 3244 3245 3246 3247 3248 3249 3250 3251 3252 3252 3253 3254 3254 3255
3147 3150 3152 3153 3155 3156 3158 3159 3161 3164 3166 3167 3168 3170 3171 3172 3173 3173 3174 3174 3174 3174 3174 3173 3175 3175 3173 3173 3174 3174 3175 3176 3176 3177 3180 3181 3182 3185 3188 3191 3193 3195 3198 3200 3202 3204 3206 3209 3211 3214 3215 3216 3217 3218 3220 3221 3222 3224 3225 3227 3228 3229 3231 3233 3234 3236 3237 3238 3240 3241 3242 3243 3244 3245 3246 3247 3248 3249 3250 3251 3252 3252 3253 3254 3254 3255
3148 3150 3151 3153 3155 3156 3157 3159 3161 3163 3165 3166 3168 3170 3171 3172 3172 3173 3173 3173 3174 3174 3172 3172 3174 3174 3172 3171 3172 3173 3173 3173 3174 3175 3178 3180 3181 3183 3186 3189 3191 3194 3196 3199 3201 3203 3205 3208 3211 3213 3214 3215 3216 3218 3219 3220 3222 3223 3225 3226 3228 3229 3231 3232 3234 3235 3237 3238 3239 3241 3242 3243 3244 3245 3246 3247 3248 3249 3249 3250 3251 3252 3253 3253 3254 3254
3148 3149 3150 3152 3153 3155 3157 3158 3160 3162 3163 3165 3167 3169 3170 3171 3172 3172 3173 3173 3174 3172 3171 3171 3172 3173 3171 3169 3170 3171 3171 3172 3173 3174 3176 3177 3180 3182 3184 3186 3189 3192 3194 3197 3200 3202 3204 3207 3210 3212 3212 3214 3215 3217 3218 3219 3221 3222 3224 3226 3227 3228 3230 3232 3233 3235 3236 3237 3239 3240 3241 3242 3243 3245 3246 3247 3247 3248 3249 3250 3251 3251 3252 3253 3253 3254
3147 3148 3149 3151 3152 3154 3156 3157 3158 3160 3161 3163 3166 3168 3169 3170 3171 3172 3173 3173 3174 3171 3169 3170 3171 3173 3172 3168 3169 3169 3170 3172 3173 3174 3174 3176 3177 3180 3182 3184 3187 3190 3193 3196 3198 3200 3203 3205 3207 3209 3211 3212 3214 3215 3217 3219 3220 3222 3223 3225 3226 3228 3229 3231 3233 3234 3235 3237 3238 3240 3240 3241 3242 3244 3245 3246 3247 3248 3248 3249 3250 3251 3252 3252 3253 3254
3146 3147 3148 3150 3151 3153 3155 3156 3157 3158 3159 3162 3164 3166 3168 3169 3170 3172 3171 3172 3172 3169 3169 3169 3171 3172 3169 3167 3168 3169 3169 3170 3172 3173 3174 3174 3175 3177 3180 3182 3185 3188 3190 3194 3197 3199 3201 3203 3205 3207 3209 3211 3212 3215 3216 3218 3220 3221 3223 3224 3226 3227 3229 3230 3232 3233 3235 3236 3237 3239 3240 3241 3242 3243 3245 3246 3247 3247 3248 3249 3250 3250 3251 3252 3252 3253
3145 3146 3147 3148 3150 3151 3152 3154 3155 3156 3158 3160 3161 3163 3164 3165 3167 3170 3170 3170 3170 3169 3168 3170 3170 3169 3167 3166 3167 3167 3168 3169 3170 3171 3172 3173 3174 3175 3177 3180 3183 3185 3188 3191 3195 3197 3200 3202 3204 3206 3208 3210 3212 3214 3216 3217 3219 3221 3222 3224 3225 3227 3228 3229 3231 3233 3234 3235 3237 3238 3239 3241 3242 3243 3244 3245 3246 3247 3248 3249 3249 3250 3250 3251 3251 3252
3144 3144 3145 3147 3148 3149 3150 3152 3154 3156 3157 3158 3159 3161 3162 3162 3164 3166 3167 3168 3168 3167 3168 3170 3169 3167 3164 3164 3165 3165 3166 3167 3168 3169 3170 3171 3172 3173 3175 3177 3180 3183 3186 3189 3193 3196 3199 3201 3203 3205 3207 3209 3211 3213 3215 3217 3218 3220 3222 3223 3225 3226 3227 3229 3230 3232 3233 3235 3236 3237 3239 3240 3242 3243 3244 3245 3246 3247 3248 3248 3249 3249 3250 3250 3251 3251
3144 3144 3143 3145 3146 3147 3149 3151 3152 3154 3155 3156 3158 3159 3160 3161 3162 3163 3164 3165 3165 3166 3167 3168 3167 3164 3163 3163 3164 3165 3165 3166 3166 3167 3168 3169 3171 3171 3172 3174 3177 3181 3184 3188 3191 3194 3197 3199 3201 3204 3206 3208 3211 3213 3214 3216 3217 3219 3221 3222 3224 3225 3227 3228 3230 3231 3232 3234 3235 3236 3238 3239 3241 3242 3244 3244 3245 3246 3247 3248 3249 3249 3249 3250 3250 3251
3143 3143 3143 3144 3145 3146 3148 3149 3150 3152 3153 3154 3155 3155 3157 3160 3162 3162 3162 3163 3165 3164 3164 3165 3165 3163 3163 3163 3162 3164 3164 3165 3165 3166 3167 3168 3169 3170 3171 3172 3175 3179 3182 3186 3189 3192 3195 3197 3200 3202 3205 3207 3209 3212 3214 3215 3217 3218 3220 3222 3223 3224 3226 3227 3229 3230 3231 3232 3234 3235 3236 3238 3240 3241 3243 3244 3244 3245 3246 3247 3248 3249 3249 3249 3250 3250
3142 3142 3143 3143 3144 3145 3146 3147 3149 3150 3151 3152 3153 3154 3157 3160 3161 3161 3161 3162 3163 3162 3161 3163 3163 3162 3162 3161 3161 3162 3163 3163 3164 3165 3166 3167 3168 3169 3171 3172 3174 3177 3181 3184 3187 3190 3192 3195 3197 3200 3203 3205 3208 3211 3213 3215 3216 3218 3219 3220 3222 3223 3225 3226 3227 3229 3230 3231 3232 3234 3235 3237 3238 3240 3241 3242 3243 3244 3245 3246 3247 3248 3249 3249 3249 3250
3142 3142 3142 3143 3143 3143 3144 3146 3147 3148 3149 3151 3152 3153 3155 3156 3157 3158 3159 3159 3159 3160 3160 3161 3161 3160 3160 3160 3160 3161 3162 3162 3163 3164 3165 3166 3167 3168 3170 3172 3174 3176 3179 3182 3185 3188 3190 3193 3195 3198 3201 3203 3206 3209 3211 3213 3215 3216 3218 3219 3220 3222 3223 3224 3226 3227 3229 3230 3231 3232 3233 3235 3236 3238 3239 3241 3242 3243 3244 3245 3246 3247 3248 3248 3249 3250
3141 3141 3141 3142 3142 3142 3143 3144 3145 3146 3147 3149 3150 3151 3152 3153 3154 3155 3156 3155 3156 3157 3158 3159 3160 3158 3158 3158 3159 3160 3161 3161 3162 3163 3164 3165 3166 3168 3169 3171 3172 3174 3176 3180 3183 3186 3189 3191 3193 3196 3198 3201 3204 3206 3209 3211 3213 3215 3216 3217 3219 3220 3221 3223 3224 3225 3227 3228 3230 3231 3232 3233 3235 3236 3238 3239 3241 3242 3243 3244 3245 3246 3247 3247 3248 3249
3141 3141 3141 3141 3141 3142 3142 3142 3143 3144 3145 3147 3149 3150 3150 3151 3152 3154 3154 3154 3154 3155 3156 3156 3157 3155 3155 3157 3158 3159 3160 3160 3161 3162 3163 3164 3166 3167 3169 3170 3171 3172 3175 3178 3180 3183 3187 3189 3191 3194 3196 3199 3201 3203 3205 3208 3210 3212 3214 3215 3217 3219 3220 3222 3223 3224 3226 3227 3228 3229 3231 3232 3233 3235 3236 3238 3239 3241 3242 3243 3244 3245 3246 3247 3248 3248
3141 3141 3141 3141 3141 3141 3140 3140 3141 3142 3144 3145 3146 3147 3148 3150 3151 3151 3151 3152 3153 3153 3153 3154 3153 3153 3154 3156 3157 3158 3159 3160 3161 3162 3163 3164 3166 3167 3169 3170 3171 3172 3174 3177 3180 3182 3185 3187 3189 3192 3194 3196 3198 3200 3203 3205 3206 3208 3210 3212 3214 3216 3218 3220 3221 3223 3224 3225 3227 3228 3229 3230 3232 3233 3235 3236 3238 3239 3240 3242 3242 3244 3245 3246 3246 3247
3141 3141 3141 3141 3141 3140 3140 3139 3140 3141 3142 3143 3144 3145 3146 3148 3149 3149 3148 3149 3152 3152 3153 3153 3152 3152 3153 3154 3155 3157 3158 3159 3160 3161 3162 3164 3165 3167 3168 3169 3170 3172 3174 3177 3180 3182 3184 3186 3187 3188 3190 3192 3196 3199 3201 3203 3205 3206 3208 3209 3211 3213 3215 3216 3218 3220 3221 3223 3224 3226 3227 3228 3230 3231 3232 3234 3236 3237 3239 3240 3241 3242 3243 3244 3245 3246
3140 3140 3140 3140 3140 3140 3140 3139 3140 3141 3141 3142 3143 3143 3145 3146 3147 3147 3147 3148 3150 3150 3151 3152 3152 3151 3152 3153 3154 3156 3157 3158 3159 3161 3162 3163 3165 3166 3168 3168 3169 3171 3173 3176 3178 3181 3183 3185 3186 3187 3188 3190 3193 3196 3199 3201 3203 3204 3205 3206 3208 3210 3211 3212 3214 3216 3218 3220 3221 3223 3224 3226 3227 3229 3230 3232 3234 3235 3237 3238 3239 3240 3241 3242 3244 3244
3140 3140 3140 3140 3140 3140 3140 3140 3141 3141 3141 3141 3142 3142 3143 3144 3145 3146 3146 3147 3148 3148 3150 3151 3150 3150 3151 3152 3153 3154 3156 3157 3158 3159 3161 3163 3164 3166 3167 3168 3169 3170 3172 3174 3176 3179 3181 3183 3184 3185 3187 3188 3190 3193 3196 3198 3199 3199 3200 3202 3205 3207 3209 3210 3212 3214 3215 3217 3219 3220 3221 3223 3225 3226 3228 3229 3231 3233 3234 3236 3237 3238 3239 3240 3242 3243
3139 3139 3140 3140 3140 3141 3142 3141 3142 3142 3141 3142 3142 3142 3142 3142 3143 3145 3145 3146 3146 3147 3148 3149 3148 3149 3150 3151 3151 3152 3154 3156 3157 3158 3160 3162 3164 3165 3166 3167 3169 3170 3171 3173 3175 3177 3179 3180 3181 3183 3185 3186 3188 3190 3192 3193 3194 3196 3199 3201 3203 3205 3207 3209 3211 3212 3213 3215 3216 3217 3219 3220 3222 3224 3225 3227 3228 3230 3231 3233 3234 3236 3237 3238 3239 3240
3139 3138 3139 3139 3140 3142 3143 3142 3142 3142 3142 3142 3142 3141 3141 3141 3142 3143 3144 3144 3145 3146 3147 3148 3148 3149 3149 3150 3150 3151 3153 3154 3156 3157 3158 3161 3163 3164 3165 3166 3167 3169 3171 3172 3174 3175 3176 3176 3179 3181 3183 3184 3185 3187 3189 3190 3190 3193 3195 3198 3201 3202 3204 3205 3206 3207 3210 3212 3213 3214 3216 3217 3219 3221 3223 3224 3226 3227 3228 3230 3232 3233 3234 3235 3236 3238
3138 3138 3138 3138 3139 3141 3142 3142 3142 3143 3143 3142 3142 3141 3141 3141 3141 3141 3142 3143 3144 3145 3146 3146 3148 3148 3149 3149 3149 3150 3151 3153 3154 3156 3157 3160 3162 3163 3164 3165 3166 3168 3170 3171 3172 3173 3173 3174 3176 3179 3181 3181 3183 3184 3186 3187 3188 3190 3192 3194 3197 3198 3199 3201 3201 3204 3207 3209 3210 3211 3213 3215 3216 3218 3220 3222 3223 3225 3226 3227 3229 3230 3231 3233 3234 3235
3138 3138 3138 3138 3139 3140 3141 3142 3142 3143 3143 3143 3142 3141 3140 3140 3140 3140 3141 3141 3143 3143 3144 3145 3147 3148 3148 3148 3148 3149 3150 3151 3153 3155 3156 3158 3161 3162 3163 3164 3166 3167 3169 3170 3171 3171 3171 3172 3174 3176 3177 3179 3180 3181 3182 3184 3185 3187 3188 3190 3193 3194 3196 3197 3199 3201 3203 3205 3206 3209 3211 3214 3215 3216 3217 3219 3221 3222 3223 3224 3226 3227 3229 3230 3232 3233
3138 3138 3138 3138 3139 3139 3140 3141 3142 3143 3143 3143 3143 3142 3141 3140 3139 3139 3140 3140 3141 3142 3143 3144 3145 3146 3146 3147 3147 3148 3149 3151 3153 3154 3155 3157 3160 3161 3162 3163 3165 3166 3168 3169 3169 3170 3170 3171 3172 3174 3175 3176 3177 3179 3180 3181 3183 3185 3187 3189 3191 3192 3193 3194 3196 3198 3200 3202 3204 3206 3208 3210 3213 3214 3215 3216 3218 3219 3220 3221 3223 3224 3226 3228 3229 3230
3137 3138 3137 3138 3139 3139 3139 3140 3141 3142 3143 3143 3143 3142 3141 3140 3139 3138 3139 3139 3140 3140 3141 3143 3143 3144 3145 3146 3147 3148 3149 3150 3152 3153 3155 3157 3159 3161 3162 3163 3164 3165 3167 3168 3168 3169 3169 3170 3171 3172 3173 3174 3175 3176 3178 3179 3181 3184 3185 3187 3188 3189 3190 3191 3193 3196 3198 3199 3200 3202 3204 3206 3208 3210 3211 3213 3214 3215 3216 3218 3220 3221 3223 3225 3226 3228
3137 3137 3137 3137 3138 3138 3139 3139 3141 3142 3142 3142 3142 3142 3141 3139 3138 3138 3138 3138 3139 3139 3140 3141 3141 3142 3143 3144 3146 3147 3148 3150 3152 3153 3155 3157 3159 3160 3161 3162 3163 3164 3165 3167 3168 3168 3169 3169 3170 3171 3172 3173 3174 3175 3176 3178 3180 3182 3183 3184 3185 3186 3188 3189 3191 3194 3196 3196 3197 3199 3201 3202 3204 3205 3207 3209 3210 3212 3214 3216 3218 3219 3221 3222 3224 3225
3136 3136 3136 3136 3137 3137 3138 3139 3140 3141 3142 3141 3140 3141 3141 3140 3139 3138 3138 3138 3138 3138 3139 3140 3140 3140 3141 3142 3143 3145 3147 3149 3151 3153 3154 3156 3158 3159 3160 3161 3162 3163 3164 3165 3166 3167 3168 3168 3169 3170 3171 3172 3173 3173 3174 3175 3177 3180 3181 3182 3183 3185 3186 3188 3190 3192 3193 3193 3194 3196 3197 3199 3200 3201 3203 3205 3207 3210 3212 3214 3215 3217 3218 3219 3221 3222
3135 3135 3135 3136 3136 3136 3137 3138 3139 3141 3141 3140 3139 3139 3140 3140 3139 3138 3138 3138 3138 3138 3138 3138 3139 3139 3140 3141 3141 3143 3146 3148 3150 3152 3153 3155 3157 3158 3159 3160 3161 3161 3163 3164 3165 3166 3167 3167 3168 3170 3170 3171 3172 3172 3173 3174 3175 3177 3179 3181 3182 3183 3184 3185 3187 3189 3191 3192 3192 3193 3195 3196 3198 3199 3200 3201 3204 3206 3208 3209 3212 3214 3215 3216 3218 3219
3134 3134 3134 3135 3135 3135 3136 3137 3139 3139 3138 3138 3138 3138 3138 3139 3139 3138 3138 3138 3138 3138 3138 3137 3137 3138 3139 3140 3141 3143 3145 3147 3149 3150 3152 3154 3155 3156 3157 3158 3159 3160 3161 3163 3164 3165 3165 3166 3168 3169 3170 3170 3171 3172 3172 3173 3174 3176 3177 3179 3180 3181 3182 3183 3185 3187 3189 3190 3190 3191 3192 3194 3195 3196 3197 3198 3199 3202 3204 3206 3208 3210 3212 3213 3215 3216
3134 3134 3134 3134 3134 3135 3135 3136 3137 3136 3136 3137 3137 3137 3137 3138 3138 3138 3139 3139 3139 3138 3138 3137 3137 3137 3138 3139 3141 3143 3145 3146 3148 3149 3151 3153 3154 3155 3156 3157 3158 3159 3160 3161 3162 3163 3164 3165 3166 3167 3168 3169 3170 3171 3172 3173 3174 3175 3176 3178 3179 3180 3181 3182 3183 3185 3186 3188 3189 3190 3191 3191 3192 3193 3194 3194 3195 3198 3201 3203 3204 3207 3209 3211 3212 3214
3133 3133 3133 3134 3134 3134 3135 3135 3135 3135 3135 3136 3136 3136 3136 3137 3138 3139 3139 3139 3139 3138 3138 3137 3136 3137 3138 3140 3141 3143 3144 3146 3147 3149 3151 3153 3154 3155 3156 3157 3157 3158 3159 3159 3161 3162 3163 3164 3165 3166 3167 3168 3169 3170 3171 3172 3173 3174 3175 3176 3178 3178 3179 3180 3182 3183 3184 3185 3187 3188 3189 3190 3190 3190 3190 3190 3191 3193 3197 3199 3201 3203 3205 3207 3209 3210
3133 3133 3133 3133 3134 3134 3135 3135 3135 3135 3135 3135 3135 3136 3136 3137 3137 3138 3139 3139 3139 3138 3138 3136 3136 3137 3139 3140 3141 3142 3143 3145 3147 3148 3150 3152 3154 3155 3156 3156 3156 3157 3158 3159 3159 3160 3161 3162 3163 3164 3165 3167 3168 3169 3170 3171 3172 3173 3174 3175 3176 3177 3178 3179 3180 3181 3182 3183 3184 3186 3187 3188 3189 3188 3188 3188 3188 3189 3192 3195 3197 3199 3202 3204 3206 3207
3133 3133 3133 3133 3133 3134 3134 3134 3135 3135 3135 3135 3135 3135 3136 3137 3137 3138 3138 3139 3139 3138 3138 3137 3136 3137 3138 3139 3140 3141 3142 3144 3145 3147 3149 3151 3153 3154 3155 3156 3156 3157 3157 3158 3159 3160 3160 3161 3162 3163 3164 3165 3167 3168 3169 3170 3171 3172 3173 3174 3175 3176 3176 3177 3178 3180 3181 3182 3183 3184 3185 3186 3187 3187 3187 3187 3187 3188 3190 3192 3194 3196 3198 3199 3201 3203
3133 3132 3132 3133 3133 3133 3134 3134 3134 3135 3134 3134 3134 3135 3136 3136 3137 3137 3138 3138 3138 3138 3138 3138 3138 3138 3139 3140 3140 3140 3141 3143 3145 3147 3148 3149 3151 3153 3155 3156 3156 3156 3157 3157 3158 3159 3160 3160 3161 3162 3163 3164 3165 3166 3168 3169 3170 3171 3172 3173 3174 3174 3175 3176 3177 3178 3179 3180 3181 3182 3184 3185 3185 3186 3187 3188 3188 3189 3190 3190 3192 3194 3195 3196 3197 3199
3133 3133 3132 3133 3133 3133 3133 3134 3134 3134 3134 3134 3134 3134 3135 3136 3136 3137 3137 3138 3138 3138 3139 3139 3139 3139 3140 3141 3142 3141 3142 3144 3147 3149 3150 3150 3151 3152 3153 3155 3156 3156 3157 3157 3158 3159 3160 3160 3161 3162 3163 3164 3164 3165 3166 3168 3169 3170 3171 3172 3173 3174 3174 3175 3176 3176 3177 3179 3180 3181 3182 3183 3184 3185 3186 3187 3188 3189 3190 3190 3191 3193 3195 3195 3195 3196
3133 3133 3133 3133 3133 3133 3133 3134 3134 3134 3134 3134 3134 3134 3134 3135 3136 3136 3136 3137 3137 3138 3138 3139 3140 3140 3140 3141 3142 3142 3142 3144 3146 3149 3151 3151 3152 3152 3153 3154 3156 3157 3157 3158 3158 3159 3160 3161 3161 3162 3163 3164 3164 3165 3166 3167 3168 3169 3170 3171 3172 3172 3173 3174 3174 3175 3176 3177 3179 3180 3181 3182 3183 3184 3185 3186 3187 3188 3188 3189 3189 3190 3192 3193 3192 3193
3134 3134 3133 3133 3133 3133 3133 3134 3134 3134 3134 3134 3134 3134 3134 3135 3135 3136 3136 3137 3137 3137 3138 3138 3140 3140 3140 3140 3141 3141 3141 3143 3145 3148 3150 3151 3152 3152 3153 3154 3155 3157 3158 3158 3158 3159 3160 3161 3162 3163 3163 3164 3165 3165 3166 3167 3168 3169 3169 3170 3170 3171 3172 3172 3173 3174 3175 3176 3178 3179 3180 3181 3182 3183 3184 3185 3185 3186 3187 3187 3187 3188 3189 3191 3191 3192
3133 3134 3134 3133 3133 3133 3134 3134 3134 3134 3135 3135 3135 3135 3135 3135 3135 3135 3136 3136 3137 3137 3138 3138 3139 3140 3140 3140 3140 3141 3141 3142 3145 3147 3148 3150 3151 3152 3153 3154 3155 3156 3157 3158 3158 3159 3159 3160 3161 3162 3163 3164 3164 3165 3166 3166 3167 3168 3169 3169 3170 3170 3171 3171 3172 3173 3174 3175 3177 3178 3179 3180 3181 3182 3183 3184 3185 3185 3186 3186 3187 3187 3188 3189 3189 3190
3133 3133 3133 3133 3133 3134 3134 3134 3134 3134 3134 3135 3135 3135 3135 3135 3135 3135 3136 3136 3136 3137 3137 3137 3137 3138 3138 3139 3140 3141 3142 3142 3144 3146 3148 3149 3151 3151 3153 3154 3155 3156 3156 3157 3158 3158 3158 3159 3159 3160 3161 3162 3163 3164 3165 3166 3166 3167 3168 3168 3169 3170 3170 3171 3171 3172 3173 3174 3175 3176 3178 3179 3179 3180 3181 3182 3183 3184 3185 3185 3186 3186 3187 3187 3188 3189
3133 3133 3133 3133 3133 3133 3133 3133 3134 3134 3134 3134 3134 3134 3135 3135 3135 3135 3135 3135 3136 3136 3136 3136 3136 3136 3137 3137 3138 3140 3140 3141 3143 3145 3147 3149 3150 3151 3152 3153 3154 3154 3154 3155 3155 3156 3156 3157 3157 3158 3159 3160 3161 3162 3163 3164 3165 3165 3166 3167 3167 3168 3169 3169 3170 3171 3172 3172 3173 3175 3176 3177 3178 3179 3179 3180 3181 3182 3183 3184 3184 3185 3185 3186 3186 3187
3132 3133 3133 3133 3133 3133 3133 3133 3133 3133 3133 3134 3134 3134 3134 3134 3134 3135 3135 3135 3135 3135 3135 3135 3135 3135 3135 3136 3137 3139 3139 3140 3141 3143 3146 3147 3149 3150 3151 3151 3152 3152 3153 3153 3153 3153 3153 3154 3154 3155 3156 3157 3158 3159 3160 3161 3162 3163 3164 3164 3165 3166 3166 3167 3168 3169 3169 3170 3171 3172 3173 3174 3175 3176 3177 3178 3179 3180 3180 3181 3182 3183 3183 3184 3184 3185
3131 3131 3132 3132 3132 3132 3132 3132 3132 3132 3133 3133 3133 3133 3133 3133 3133 3134 3134 3134 3134 3134 3134 3134 3134 3133 3134 3136 3138 3138 3138 3138 3139 3142 3144 3144 3145 3147 3148 3149 3150 3150 3151 3151 3151 3151 3151 3151 3152 3153 3154 3155 3156 3157 3158 3158 3159 3160 3161 3162 3162 3163 3164 3164 3165 3166 3167 3168 3168 3169 3170 3172 3173 3174 3174 3175 3176 3177 3178 3178 3179 3180 3180 3181 3182 3182
3130 3130 3130 3130 3131 3131 3131 3131 3131 3131 3131 3131 3131 3131 3132 3132 3132 3132 3133 3133 3133 3133 3133 3133 3133 3132 3133 3135 3136 3136 3136 3138 3139 3140 3140 3140 3141 3142 3144 3146 3147 3147 3148 3149 3149 3149 3150 3150 3151 3151 3152 3153 3154 3155 3155 3155 3156 3157 3158 3159 3159 3160 3161 3161 3162 3163 3164 3165 3166 3166 3167 3168 3169 3170 3171 3172 3173 3174 3174 3175 3176 3176 3177 3178 3178 3179
3128 3128 3128 3129 3129 3129 3129 3129 3130 3130 3130 3130 3130 3130 3130 3130 3131 3131 3132 3132 3132 3132 3132 3132 3132 3132 3131 3132 3133 3134 3136 3137 3137 3136 3136 3137 3138 3139 3141 3142 3143 3144 3146 3147 3147 3148 3148 3148 3149 3150 3151 3151 3152 3152 3152 3153 3154 3154 3155 3156 3156 3157 3157 3158 3159 3160 3161 3162 3162 3163 3164 3165 3166 3167 3168 3168 3169 3170 3171 3171 3172 3173 3173 3174 3175 3175
3126 3126 3126 3126 3127 3127 3127 3127 3127 3128 3128 3128 3128 3128 3128 3129 3129 3129 3130 3131 3131 3131 3131 3131 3131 3131 3131 3132 3132 3133 3134 3134 3134 3134 3134 3135 3136 3138 3140 3141 3142 3143 3144 3144 3145 3146 3146 3146 3147 3148 3149 3150 3150 3150 3150 3151 3151 3152 3152 3153 3153 3154 3154 3155 3156 3156 3157 3158 3159 3159 3160 3161 3162 3163 3164 3164 3165 3166 3166 3167 3168 3169 3169 3170 3170 3171